Regional Weather Roundup
Issued by NWS

Home | Current Version | Previous Version | Graphics & Text | Print | Product List | Glossary On
Versions: 1 2 3 4 5 6 7 8 9 10 11 12 13 14 15 16 17 18 19 20 21 22 23 24 25 26 27 28 29 30 31 32 33 34 35 36 37 38 39 40 41 42 43 44 45 46 47 48 49 50
000
ASUS43 KLOT 201603
RWRIL

ILLINOIS REGIONAL WEATHER ROUNDUP
NATIONAL WEATHER SERVICE CHICAGO/ROMEOVILLE IL
1000 AM CST MON FEB 20 2017

NOTE: "FAIR" INDICATES FEW OR NO CLOUDS BELOW 12,000 FEET WITH NO
SIGNIFICANT WEATHER AND/OR OBSTRUCTIONS TO VISIBILITY.

* THESE STATIONS ARE NOT UNDER NWS QUALITY CONTROL. THEY ALSO MAY NOT
  REPORT WEATHER SUCH AS PRECIPITATION OR FOG.

ILZ001-002-007-009-015-016-024-201700-
NORTHWEST ILLINOIS

CITY           SKY/WX    TMP DP  RH WIND       PRES   REMARKS
MOLINE         CLOUDY    55  50  83 SE10      29.99F HAZE
STERLING*      PTSUNNY   53  49  86 SE12G20   30.04F
SAVANNA*       CLOUDY    52  48  87 SE12      30.01F FOG
$$

ILZ003-004-008-010-011-017-018-201700-
NORTH CENTRAL ILLINOIS

CITY           SKY/WX    TMP DP  RH WIND       PRES   REMARKS
ROCKFORD       CLOUDY    53  47  79 S13       30.08S
FREEPORT*      MOSUNNY   52  47  84 SE16      30.05F
ROCHELLE*      CLOUDY    52  48  87 S16       30.08F FOG
DE KALB*       CLOUDY    52  48  85 SE16      30.10F FOG
PERU*          CLOUDY    55  48  78 SE16      30.08F
$$

ILZ005-006-012>014-019>023-201700-
NORTHEAST ILLINOIS

CITY           SKY/WX    TMP DP  RH WIND       PRES   REMARKS
CHICAGO-OHARE  CLOUDY    57  47  69 S13       30.11F
CHICAGO-MIDWAY CLOUDY    58  46  64 S9        30.12F
AURORA         CLOUDY    54  47  77 SE15      30.11S HAZE
LANSING*       CLOUDY    56  50  79 SE10      30.15R
JOLIET*        CLOUDY    57  49  76 S9        30.13S
WAUKEGAN       CLOUDY    45  42  89 SE13      30.11S FOG
DUPAGE AIRPORT CLOUDY    56  46  69 S13       30.10S
KANKAKEE*      PTSUNNY   58  48  69 SE10      30.15S
WHEELING       CLOUDY    56  46  69 S10       30.13S
MORRIS*        CLOUDY    54  47  76 S12       30.11S
ROMEOVILLE*    CLOUDY    54  50  86 S15       30.12S
NORTHERLY ISL    N/A     44  39  82 SE3         N/A
$$

LMZ740>746-201700-
SOUTHERN LAKE MICHIGAN

STATION/POSITION SKY/WX   TEMP    WIND        PRES    VSBY  WAVE
                          AIR SEA DIR/SP/G                  HT/PER
                          (F)     (DEG/KT/KT) (MB)    (MI)  (FT/S)
HARRISON CRIB              43     170/ 10/ 10   N/A
BURNHAM HARBOR             44     130/  3/  5   N/A
CALUMET HARBOR             53     150/ 10/ 14 1019.9S
BURNS HARBOR               55     140/ 10/ 16 1021.0F
MICHIGAN CITY              54     140/ 14/ 16   N/A
$$

ILZ025>027-034>036-040-047-049-050-058-095>099-201700-
WEST-CENTRAL ILLINOIS

CITY           SKY/WX    TMP DP  RH WIND       PRES   REMARKS
QUINCY         CLOUDY    61  52  72 SE12      29.95F
GALESBURG*     CLOUDY    54  51  90 SE10G17   29.99F FOG
MACOMB*        CLOUDY    57  53  86 SE13      30.02F
JACKSONVILLE*  CLOUDY    61  52  73 SE13      30.02F
PITTSFIELD*    MOSUNNY   60  53  77 SE15G22   29.99F
$$

ILZ028>032-037-038-041>044-048-051>054-059>061-201700-
CENTRAL ILLINOIS

CITY           SKY/WX    TMP DP  RH WIND       PRES   REMARKS
PONTIAC        MOSUNNY   57  53  85 SE14      30.12F
BLOOMINGTON    MOSUNNY   55  51  86 SE17      30.10F
DECATUR        CLOUDY    58  50  75 SE15      30.10F
PEORIA         CLOUDY    60  52  74 SE10      30.04F HAZE
LACON*         PTSUNNY   58  52  79 S14       30.05F
LINCOLN*       MOSUNNY   63  53  70 S17       30.07F
SPRINGFIELD    CLOUDY    62  51  67 SE14      30.05F
TAYLORVILLE    CLOUDY    59  51  75 SE15      30.07F
$$

ILZ033-039-045-046-055>057-062-063-201700-
EAST-CENTRAL ILLINOIS

CITY           SKY/WX    TMP DP  RH WIND       PRES   REMARKS
CHAMPAIGN      MOSUNNY   53  50  89 SE16      30.13F FOG
RANTOUL*       SUNNY     57  53  86 SE15      30.14S
MATTOON        MOSUNNY   55  52  89 SE10      30.12F
PARIS*         PTSUNNY   54  51  91 SE10      30.17S
$$

ILZ079-100>102-201700-
SOUTHWEST ILLINOIS

CITY           SKY/WX    TMP DP  RH WIND       PRES   REMARKS
ALTON          PTSUNNY   59  52  77 SE10      30.06F
BELLEVILLE     MOSUNNY   65  55  70 E14       30.05F
CAHOKIA*       CLOUDY    64  51  62 S14       30.05S
SPARTA*        SUNNY     60  52  74 SE12      30.09S
$$

ILZ064>066-069>071-074>076-080>082-084>086-088>090-092>094-201700-
SOUTH-CENTRAL ILLINOIS

CITY           SKY/WX    TMP DP  RH WIND       PRES   REMARKS
CARBONDALE     MOSUNNY   63  54  72 S9        30.10F
CAIRO*         CLOUDY    62  54  74 SE3       30.12S
EFFINGHAM*     MOSUNNY   58  53  85 SE10      30.13F
MARION         PTSUNNY   64  57  77 SE8       30.12F
MT. VERNON     MOSUNNY   59  53  80 SE7       30.12F
CENTRALIA*     MOSUNNY   63  54  73 SE10      30.09F
SALEM*         MOSUNNY   61  51  69 SE9       30.10F
METROPOLIS*    MOSUNNY   61  53  75 CALM      30.14R
$$

ILZ067-068-072-073-078-083-087-091-201700-
SOUTHEAST ILLINOIS

CITY           SKY/WX    TMP DP  RH WIND       PRES   REMARKS
LAWRENCEVILLE  PTSUNNY   55  50  83 E7        30.18R
FLORA*         MOSUNNY   58  53  81 SE12      30.13F
FAIRFIELD*     MOSUNNY   59  52  78 SE7       30.12F
HARRISBURG*    CLOUDY    58  53  84 SE9       30.13F
ROBINSON*      MOSUNNY   52  50  93 SE6       30.18F
CARMI*         MOSUNNY   56  53  89 SE10      30.13F
$$

ABBREVIATIONS USED IN REMARKS
   TC - TEMPERATURE IN CELSIUS
  WCI - WIND CHILL INDEX
   HX - HEAT INDEX
  VSB - VISIBILITY
$$





USA.gov is the U.S. government's official web portal to all federal, state and local government web resources and services.